Regional Weather Roundup
Issued by NWS

Home | Current Version | Previous Version | Text Only | Print | Product List | Glossary Off
Versions: 1 2 3 4 5 6 7 8 9 10 11 12 13 14 15 16 17 18 19 20 21 22 23 24 25 26 27 28 29 30 31 32 33 34 35 36 37 38 39 40 41 42 43 44 45 46 47 48 49 50

000
ASUS43 KMPX 281810
RWRMN
WEATHER ROUNDUP FOR MINNESOTA
NATIONAL WEATHER SERVICE TWIN CITIES/CHANHASSEN MN
1200 PM CST WED JAN 28 2015


NOTE: "FAIR" INDICATES FEW OR NO CLOUDS BELOW 12,000 FEET WITH NO
SIGNIFICANT WEATHER AND/OR OBSTRUCTIONS TO VISIBILITY. N/A MEANS
CURRENT SKY AND/OR WEATHER CONDITIONS ARE NOT AVAILABLE.

MNZ060>063-068>070-281900-
   Twin Cities Metro

CITY           SKY/WX    TMP DP  RH WIND       PRES   REMARKS
TWIN CITIES    CLOUDY    28  24  85 SE15      29.93F FOG     WCI  16
6HR MIN TEMP:  28; 6HR MAX TEMP:  29;

ST PAUL        CLOUDY    28  24  85 SE14      29.96F FOG     WCI  17
CRYSTAL        CLOUDY    30  25  81 SE14G22   29.90F HAZE    WCI  19
BLAINE         CLOUDY   N/A N/A N/A SE104     29.93F FOG
LAKEVILLE      CLOUDY    27  27 100 SE10G17   29.92F FOG     WCI  17
EDEN PRAIRIE   CLOUDY    29  25  85 SE14      29.90F FOG     WCI  18
6HR MIN TEMP:  28; 6HR MAX TEMP:  30;

SOUTH ST PAUL  CLOUDY    29  25  84 SE12      29.94F FOG     WCI  19
LAKE ELMO      CLOUDY    30  27  86 SE10      29.96F FOG     WCI  21
$$
MNZ001>005-007-008-013>017-022>024-027-028-281900-
   Northwest Minnesota

CITY           SKY/WX    TMP DP  RH WIND       PRES   REMARKS
BEMIDJI        CLOUDY    31  30  95 S12G17    29.79F FOG     WCI  22
HALLOCK        FOG       34  32  93 S3        29.80S VSB 1/2
ROSEAU         HAZE      34  28  80 CALM      29.81S VSB 1
WARROAD        FOG       32  28  86 SE5       29.81F VSB 3/4 WCI  27
THIEF RVR FALL CLOUDY    34  30  86 S9        29.78F WCI  26
CROOKSTON      CLOUDY    34  32  93 S14       29.79S FOG     WCI  24
FOSSTON        CLOUDY    32  28  86 S14       29.77F FOG     WCI  22
DETROIT LAKES  CLOUDY    34  32  93 S13G18    29.78F FOG     WCI  25
MOORHEAD       CLOUDY    36  36 100 S14       29.79S FOG
PARK RAPIDS    CLOUDY    31  30  96 S14       29.79F FOG     WCI  21
MAHNOMEN       CLOUDY    33  31  94 S10       29.77F FOG     WCI  24
$$
MNZ006-009>011-018-025>026-281900-
   North Central Minnesota

CITY           SKY/WX    TMP DP  RH WIND       PRES   REMARKS
BAUDETTE       CLOUDY    30  29  96 VRB7      29.80F FOG     WCI  23
FLAG ISLAND    FOG       28  28 100 E3        29.82F VSB 3/4
INTL FALLS     CLOUDY    28  24  85 SE8       29.83F WCI  20
6HR MIN TEMP:  26; 6HR MAX TEMP:  28;

WASKISH        CLOUDY    30  28  93 SE6       29.80F FOG     WCI  24
BIG FORK       CLOUDY    28  25  86 SE7       29.83F FOG     WCI  21
LONGVILLE      CLOUDY    28  28 100 S8G16     29.82F FOG     WCI  20
GRAND RAPIDS   CLOUDY    27  23  86 SE12      29.84F WCI  16
CRANE LAKE     CLOUDY    25  21  86 S6        29.88F WCI  18
ORR            CLOUDY    25  19  80 SE9       29.83F WCI  15
COOK           CLOUDY    25  21  86 S9        29.87F WCI  15
WALKER         CLOUDY    29  28  96 S8        29.81F FOG     WCI  21
$$
MNZ012-019>021-037-281900-
   Northeast Minnesota

CITY           SKY/WX    TMP DP  RH WIND       PRES   REMARKS
DULUTH         CLOUDY    25  22  88 SE10      29.89F FOG     WCI  15
6HR MIN TEMP:  23; 6HR MAX TEMP:  25;

ELY            CLOUDY    27  25  93 S9        29.87F WCI  17
HIBBING        CLOUDY    26  21  81 S10       29.86F WCI  16
EVELETH        CLOUDY    27  23  86 S7        29.88F FOG     WCI  19
DULUTH HARBOR  CLOUDY    30  25  80 CALM      29.96F
TWO HARBORS    CLOUDY    28  25  86 SE8       29.92F WCI  20
SILVER BAY     CLOUDY    28  25  86 CALM      29.92F
GRAND MARAIS     N/A     31  26  82 SE7       29.98F WCI  24
G MARAIS ARPRT   N/A     25  21  86 SE7       29.91F FOG     WCI  17
$$
MNZ029>031-032-039>041-046>048-054>057-064-281900-
   West Central Minnesota

CITY           SKY/WX    TMP DP  RH WIND       PRES   REMARKS
FERGUS FALLS   CLOUDY    34  30  86 S15       29.81F FOG     WCI  24
WHEATON        CLOUDY    32  30  93 SE17      29.79F FOG     WCI  21
MORRIS         CLOUDY    34  30  86 SE18      29.77F FOG     WCI  23
ALEXANDRIA     CLOUDY    31  30  96 S16       29.80F FOG     WCI  20
ELBOW LAKE     CLOUDY    32  31  96 SE16G22   29.78F FOG     WCI  21
WADENA         CLOUDY    30  28  93 S13         N/A  FOG     WCI  20
GLENWOOD       CLOUDY    30  30 100 SE17G24   29.80F FOG     WCI  18
APPLETON       CLOUDY    36  30  80 SE14      29.77F FOG
BENSON         CLOUDY    34  30  86 S14G24    29.78F FOG     WCI  24
ORTONVILLE     CLOUDY    34  30  86 SE12G18   29.76F FOG     WCI  25
MADISON        CLOUDY    37  36  93 SE16      29.76F FOG
WILLMAR        CLOUDY    34  30  86 SE20      29.82F FOG     WCI  22
$$
MNZ033>034-036-042>043-049>051-058-059-281900-
   Central Minnesota

CITY           SKY/WX    TMP DP  RH WIND       PRES   REMARKS
ST CLOUD       CLOUDY    30  27  88 SE21      29.86F FOG     WCI  17
6HR MIN TEMP:  29; 6HR MAX TEMP:  30;

SAUK CENTRE    CLOUDY    31  29  95 SE15G23   29.82F FOG     WCI  20
PAYNESVILLE    CLOUDY    28  28  99 E14       29.84F FOG     WCI  17
AITKIN         CLOUDY    30  25  80 SE9       29.85F HAZE    WCI  22
PINE RIVER     CLOUDY    28  28 100 S12G18    29.86F FOG     WCI  18
BRAINERD       CLOUDY    29  27  92 S12       29.85F FOG     WCI  19
STAPLES        CLOUDY    28  28 100 SE10      29.82F FOG     WCI  19
LONG PRAIRIE   CLOUDY    30  30 100 SE16      29.82F FOG     WCI  19
LITTLE FALLS   CLOUDY    30  28  93 SE12      29.85F FOG     WCI  21
LITCHFIELD     CLOUDY    30  30 100 SE13      29.85F FOG     WCI  20
BUFFALO        CLOUDY    29  26  89 SE9G17    29.89F FOG     WCI  21
MAPLE LAKE     CLOUDY    31  29  94 SE12      29.88F FOG     WCI  22
$$
MNZ037-044-045-052-053-281900-
   East Central Minnesota

CITY           SKY/WX    TMP DP  RH WIND       PRES   REMARKS
PRINCETON      CLOUDY    30  27  86 SE14      29.89F FOG     WCI  20
MORA           CLOUDY    27  23  86 SE8       29.93F WCI  18
CAMBRIDGE      CLOUDY    30  21  69 SE14G20   29.89F HAZE    WCI  20
RUSH CITY      CLOUDY    28  24  86 SE12G17   29.93F WCI  17
MOOSE LAKE     CLOUDY    28  23  80 S7        29.88F WCI  21
HINCKLEY       CLOUDY    30  27  86 S10       29.92F WCI  21
CLOQUET        CLOUDY    27  21  80 SE9       29.89F FOG     WCI  17
MCGREGOR       CLOUDY    28  27  93 S12       29.88F WCI  18
$$
MNZ071>073-080-081-089-090-097-098-281900-
   Southwest Minnesota

CITY           SKY/WX    TMP DP  RH WIND       PRES   REMARKS
MONTEVIDEO     CLOUDY    34  34 100 S13G22    29.80F FOG     WCI  25
GRANITE FALLS  CLOUDY    32  31  95 SE14G23   29.80F FOG     WCI  22
CANBY          CLOUDY    36  33  90 SE6       29.76F FOG
MARSHALL       CLOUDY    34  28  80 S16       29.78F WCI  23
REDWOOD FALLS  CLOUDY    33  30  88 SE17      29.81F FOG     WCI  22
OLIVIA         CLOUDY    32  32 100 SE15G22   29.81F FOG     WCI  22
PIPESTONE      CLOUDY    34  32  93 S16       29.72F FOG     WCI  23
WINDOM         CLOUDY    34  30  86 SE15      29.80F FOG     WCI  24
WORTHINGTON    CLOUDY    30  28  93 S14       29.78F WCI  20
JACKSON        CLOUDY    32  30  93 S15       29.81F FOG     WCI  22
TRACY          CLOUDY    33  32  94 S14       29.78F FOG     WCI  24
SLAYTON        CLOUDY    32  31  96 SE17      29.76F FOG     WCI  21
$$
MNZ065>067-074>077-082>085-091>093-281900-
   South Central Minnesota

CITY           SKY/WX    TMP DP  RH WIND       PRES   REMARKS
MANKATO        CLOUDY    30  27  86 SE16      29.87F WCI  19
NEW ULM        CLOUDY    30  30 100 SE12      29.85F FOG     WCI  21
ST JAMES       CLOUDY    34  30  86 SE17G23   29.85F FOG     WCI  23
FAIRMONT       CLOUDY    32  27  80 S17       29.83S WCI  21
GLENCOE        CLOUDY    32  30  93 SE14      29.86F FOG     WCI  22
FARIBAULT      CLOUDY    30  28  93 SE10      29.92F FOG     WCI  21
OWATONNA       CLOUDY    30  28  93 SE16      29.89F FOG     WCI  19
WASECA         CLOUDY    32  30  93 SE15      29.89F FOG     WCI  22
ALBERT LEA     FOG       30  30 100 SE20G28   29.86F VSB 1   WCI  18
$$
MNZ078>079-086>088-094>096-281900-
   Southeast Minnesota

CITY           SKY/WX    TMP DP  RH WIND       PRES   REMARKS
ROCHESTER      FOG       28  26  92 SE20      29.91F VSB 1/2 WCI  15
6HR MIN TEMP:  24; 6HR MAX TEMP:  28;

RED WING       CLOUDY    28  25  86 SE12      29.96F FOG     WCI  18
STANTON        CLOUDY    30  27  86 SE7       29.93F WCI  23
DODGE CENTER   FOG       28  28 100 SE18      29.89F VSB 1   WCI  16
WINONA         CLOUDY    30  27  86 SE12      30.02F FOG     WCI  21
AUSTIN         CLOUDY    28  28 100 SE12G24   29.89F FOG     WCI  18
PRESTON        FOG       27  26  97 SE13G18   29.94F VSB 3/4 WCI  16
$$
ABBREVIATIONS USED IN REMARKS
   TC - TEMPERATURES IN CELSIUS
  WCI - WIND CHILL INDEX
   HX - HEAT INDEX
  VSB - VISIBILITY
$$



USA.gov is the U.S. government's official web portal to all federal, state and local government web resources and services.